Ballenas Island, British Columbia

1:33 AM PDT on May 27, 2017 (GMT -0700)
Ballenas Island

Weather History for CWGB - July, 2013

Change the Weather History Date:

Saturday, July 6, 2013

  Actual Average Record
Temperature  
Mean Temperature 64 °F -  
Max Temperature 69 °F - - ()
Min Temperature 59 °F - - ()
Degree Days  
Heating Degree Days 1    
Growing Degree Days 14 (Base 50)    
Moisture  
Dew Point 54 °F    
Average Humidity 73    
Maximum Humidity 80    
Minimum Humidity 63    
Precipitation  
Precipitation 0.00 in - - ()
Sea Level Pressure  
Sea Level Pressure 29.93 in    
Wind  
Wind Speed 16 mph ()    
Max Wind Speed 22 mph    
Max Gust Speed -    
T = Trace of Precipitation, MM = Missing Value Source: Averaged Metar Reports

Daily Weather History Graph

Daily Weather History Graph

Search for Another Location

Airport or City:

Trip Planner

Search our weather history database for the weather conditions in past years. The results will help you decide how hot, cold, wet, or windy it might be!

Date:

Astronomy

Jul. 06, 2013 Rise Set
Actual Time 5:18 AM PDT 9:23 PM PDT
Civil Twilight 4:36 AM PDT 10:06 PM PDT
Nautical Twilight 3:36 AM PDT 11:05 PM PDT
Astronomical Twilight 1:53 AM PDT 1:04 AM PDT
Moon 4:14 AM PDT (7/6) 8:03 PM PDT (7/6)
Length of Visible Light 17h 29m
Length of Day
16h 04m
Waning Crescent, 2% of the Moon is Illuminated
Jul 6
Waning Crescent
Jul 8
New
Jul 15
First Quarter
Jul 22
Full
Jul 29
Last Quarter

Hourly Weather History & Observations

Time (PDT) Temp. Dew Point Humidity Pressure Visibility Wind Dir Wind Speed Gust Speed Precip Events Conditions
12:00 AM 62.1 °F 53.1 °F 72% 29.96 in - West 20.7 mph - N/A   Unknown
1:00 AM 61.5 °F 52.3 °F 72% 29.95 in - West 21.9 mph - N/A   Unknown
2:00 AM 60.4 °F 51.6 °F 73% 29.97 in - West 18.4 mph - N/A   Unknown
3:00 AM 60.3 °F 52.7 °F 76% 29.97 in - WNW 18.4 mph - N/A   Unknown
4:00 AM 59.7 °F 52.2 °F 76% 29.97 in - WNW 18.4 mph - N/A   Unknown
5:00 AM 60 °F 52 °F 67% 29.97 in - West 17.3 mph - -  
5:00 AM 59.5 °F 51.8 °F 76% 29.97 in - West 17.3 mph - N/A   Unknown
6:00 AM 59.4 °F 52.2 °F 77% 29.98 in - WNW 19.6 mph - N/A   Unknown
7:00 AM 59.2 °F 52.0 °F 77% 29.99 in - West 16.1 mph - N/A   Unknown
8:00 AM 59.4 °F 52.2 °F 77% 29.99 in - West 17.3 mph - N/A   Unknown
9:00 AM 59.5 °F 53.1 °F 79% 29.99 in - West 17.3 mph - N/A   Unknown
10:00 AM 59.9 °F 53.6 °F 80% 29.99 in - WNW 19.6 mph - N/A   Unknown
11:00 AM 60 °F 53 °F 71% 29.98 in - West 20.7 mph - -  
11:00 AM 60.1 °F 53.1 °F 78% 29.98 in - West 20.7 mph - N/A   Unknown
12:00 PM 61.5 °F 53.8 °F 76% 29.96 in - West 17.3 mph - N/A   Unknown
1:00 PM 62.4 °F 53.8 °F 73% 29.95 in - WNW 19.6 mph - N/A   Unknown
2:00 PM 62.8 °F 54.5 °F 74% 29.93 in - West 17.3 mph - N/A   Unknown
3:00 PM 64.8 °F 55.4 °F 72% 29.91 in - West 15.0 mph - N/A   Unknown
4:00 PM 66.2 °F 55.9 °F 69% 29.89 in - West 17.3 mph - N/A   Unknown
5:00 PM 67 °F 58 °F 66% 29.88 in - West 12.7 mph - -  
5:00 PM 67.3 °F 58.3 °F 73% 29.88 in - West 12.7 mph - N/A   Unknown
6:00 PM 68.0 °F 58.6 °F 72% 29.86 in - West 11.5 mph - N/A   Unknown
7:00 PM 69.1 °F 56.7 °F 65% 29.84 in - West 12.7 mph - N/A   Unknown
8:00 PM 68.9 °F 57.0 °F 66% 29.84 in - West 13.8 mph - N/A   Unknown
9:00 PM 69.3 °F 56.1 °F 63% 29.83 in - West 15.0 mph - N/A   Unknown
10:00 PM 66.6 °F 58.6 °F 76% 29.84 in - West 19.6 mph - N/A   Unknown
11:00 PM 65 °F 57 °F 69% 29.85 in - West 19.6 mph - -  
11:00 PM 65.3 °F 57.2 °F 75% 29.85 in - West 19.6 mph - N/A   Unknown